Location: Barrio Las Umbrías
(40.4173°N, 4.8685°W)
Time: 12:09:26
(UTC+00:00)

Cosmos 1515 - Pass Details

Date: 17 August 2022
Orbit: 496 x 507 km, 82.5° (Epoch: 27 September)

Event Time Altitude Azimuth Distance (km) Brightness Sun altitude
Rises 20:55:48 0° 352° (N) 2,613 8.0 -18.0°
Reaches altitude 10° 20:57:56 10° 353° (N) 1,721 6.9 -18.3°
Maximum altitude 21:01:42 89° 72° (ENE) 507 3.5 -18.9°
Enters shadow 21:02:44 46° 172° (S) 678 3.9 -19.1°
